Weather History for KEYF - October, 2012

Change the Weather History Date:

Tuesday, October 23, 2012

  Actual Average (KILM) Record (KILM)
Temperature  
Mean Temperature 60 °F 63 °F  
Max Temperature 77 °F 74 °F 86 °F (2007)
Min Temperature 44 °F 52 °F 37 °F (1974)
Degree Days  
Heating Degree Days 4 4  
Month to date heating degree days 53  
Since 1 July heating degree days 58  
Cooling Degree Days 0 2  
Month to date cooling degree days 83  
Year to date cooling degree days 2000  
Growing Degree Days 10 (Base 50)    
Moisture  
Dew Point 49 °F    
Average Humidity 69    
Maximum Humidity 100    
Minimum Humidity 34    
Precipitation  
Precipitation 0.00 in 0.09 in 4.23 in (1990)
Month to date precipitation 3.16  
Year to date precipitation 49.97  
Sea Level Pressure  
Sea Level Pressure 30.17 in    
Wind  
Wind Speed 1 mph (South)    
Max Wind Speed 7 mph    
Max Gust Speed -    
Visibility 10 miles    
Events      
T = Trace of Precipitation, MM = Missing Value Source: NWS Daily Summary

Daily Weather History Graph

Daily Weather History Graph

Search for Another Location

Airport or City:

Trip Planner

Search our weather history database for the weather conditions in past years. The results will help you decide how hot, cold, wet, or windy it might be!

Date:

Astronomy

Oct. 23, 2012 Rise Set
Actual Time 7:27 AM EDT 6:29 PM EDT
Civil Twilight 7:01 AM EDT 6:55 PM EDT
Nautical Twilight 6:31 AM EDT 7:24 PM EDT
Astronomical Twilight 6:02 AM EDT 7:53 PM EDT
Moon 2:59 PM EDT (10/23) 1:31 AM EDT (10/23)
Length of Visible Light 11h 53m
Length of Day
11h 02m
Waxing Gibbous, 66% of the Moon is Illuminated
Oct 23
Waxing Gibbous
Oct 29
Full
Nov 6
Last Quarter
Nov 13
New
Nov 20
First Quarter

Hourly Weather History & Observations

Time (EDT) Temp. Dew Point Humidity Pressure Visibility Wind Dir Wind Speed Gust Speed Precip Events Conditions
12:15 AM 51.8 °F 48.2 °F 88% 30.19 in 10.0 mi Calm Calm - N/A   Clear
12:35 AM 51.8 °F 48.2 °F 88% 30.19 in 10.0 mi Calm Calm - N/A   Clear
12:55 AM 50.0 °F 46.4 °F 87% 30.19 in 10.0 mi Calm Calm - N/A   Clear
1:15 AM 50.0 °F 48.2 °F 94% 30.19 in 10.0 mi Calm Calm - N/A   Clear
1:35 AM 51.8 °F 48.2 °F 88% 30.18 in 10.0 mi SW 3.5 mph - N/A   Clear
1:55 AM 51.8 °F 48.2 °F 88% 30.18 in 10.0 mi Calm Calm - N/A   Clear
2:15 AM 51.8 °F 48.2 °F 88% 30.17 in 10.0 mi Calm Calm - N/A   Clear
2:35 AM 50.0 °F 46.4 °F 87% 30.18 in 10.0 mi Calm Calm - N/A   Clear
2:55 AM 50.0 °F 46.4 °F 87% 30.17 in 10.0 mi Calm Calm - N/A   Clear
3:15 AM 50.0 °F 46.4 °F 87% 30.17 in 10.0 mi Calm Calm - N/A   Clear
3:55 AM 50.0 °F 46.4 °F 87% 30.17 in 10.0 mi Calm Calm - N/A   Clear
4:15 AM 48.2 °F 46.4 °F 93% 30.17 in 10.0 mi Calm Calm - N/A   Clear
4:35 AM 48.2 °F 44.6 °F 87% 30.17 in 10.0 mi Calm Calm - N/A   Clear
4:55 AM 46.4 °F 44.6 °F 93% 30.17 in 10.0 mi Calm Calm - N/A   Clear
5:15 AM 46.4 °F 44.6 °F 93% 30.17 in 10.0 mi Calm Calm - N/A   Clear
5:35 AM 46.4 °F 44.6 °F 93% 30.17 in 10.0 mi Calm Calm - N/A   Clear
6:15 AM 46.4 °F 44.6 °F 93% 30.18 in 10.0 mi Calm Calm - N/A   Clear
6:35 AM 46.4 °F 44.6 °F 93% 30.18 in 10.0 mi Calm Calm - N/A   Clear
6:55 AM 44.6 °F 42.8 °F 93% 30.18 in 10.0 mi Calm Calm - N/A   Clear
7:15 AM 44.6 °F 44.6 °F 100% 30.19 in 10.0 mi Calm Calm - N/A   Clear
7:35 AM 44.6 °F 42.8 °F 93% 30.19 in 10.0 mi Calm Calm - N/A   Clear
7:55 AM 44.6 °F 44.6 °F 100% 30.19 in 10.0 mi Calm Calm - N/A   Clear
8:15 AM 46.4 °F 44.6 °F 93% 30.20 in 10.0 mi Calm Calm - N/A   Clear
8:35 AM 48.2 °F 44.6 °F 87% 30.21 in 10.0 mi Calm Calm - N/A   Clear
8:55 AM 51.8 °F 48.2 °F 88% 30.22 in 10.0 mi Calm Calm - N/A   Clear
9:35 AM 59.0 °F 50.0 °F 72% 30.22 in 10.0 mi NW 4.6 mph - N/A   Clear
10:35 AM 64.4 °F 50.0 °F 59% 30.22 in 10.0 mi West 6.9 mph - N/A   Clear
10:55 AM 64.4 °F 50.0 °F 59% 30.22 in 10.0 mi NW 4.6 mph - N/A   Clear
11:15 AM 66.2 °F 50.0 °F 56% 30.22 in 10.0 mi Calm Calm - N/A   Clear
11:35 AM 68.0 °F 50.0 °F 52% 30.21 in 10.0 mi WSW 3.5 mph - N/A   Clear
11:55 AM 69.8 °F 50.0 °F 49% 30.20 in 10.0 mi West 3.5 mph - N/A   Clear
12:15 PM 69.8 °F 50.0 °F 49% 30.20 in 10.0 mi SSW 3.5 mph - N/A   Clear
12:35 PM 71.6 °F 50.0 °F 46% 30.19 in 10.0 mi Calm Calm - N/A   Clear
12:55 PM 71.6 °F 50.0 °F 46% 30.18 in 10.0 mi Calm Calm - N/A   Clear
1:15 PM 71.6 °F 48.2 °F 43% 30.17 in 10.0 mi SSW 3.5 mph - N/A   Clear
1:35 PM 73.4 °F 48.2 °F 41% 30.17 in 10.0 mi South 4.6 mph - N/A   Clear
1:55 PM 73.4 °F 48.2 °F 41% 30.16 in 10.0 mi SSE 5.8 mph - N/A   Clear
2:15 PM 73.4 °F 46.4 °F 38% 30.14 in 10.0 mi South 5.8 mph - N/A   Clear
2:35 PM 75.2 °F 46.4 °F 36% 30.14 in 10.0 mi SSW 3.5 mph - N/A   Clear
2:55 PM 77.0 °F 46.4 °F 34% 30.14 in 10.0 mi Calm Calm - N/A   Clear
3:15 PM 77.0 °F 46.4 °F 34% 30.14 in 10.0 mi SW 3.5 mph - N/A   Clear
3:35 PM 77.0 °F 46.4 °F 34% 30.13 in 10.0 mi WSW 3.5 mph - N/A   Clear
3:55 PM 77.0 °F 46.4 °F 34% 30.13 in 10.0 mi SW 3.5 mph - N/A   Clear
4:15 PM 77.0 °F 46.4 °F 34% 30.12 in 10.0 mi Calm Calm - N/A   Clear
4:35 PM 77.0 °F 46.4 °F 34% 30.12 in 10.0 mi Calm Calm - N/A   Clear
4:55 PM 77.0 °F 46.4 °F 34% 30.12 in 10.0 mi Calm Calm - N/A   Clear
5:15 PM 77.0 °F 46.4 °F 34% 30.12 in 10.0 mi Calm Calm - N/A   Clear
5:35 PM 77.0 °F 50.0 °F 39% 30.13 in 10.0 mi South 3.5 mph - N/A   Clear
6:15 PM 73.4 °F 53.6 °F 50% 30.12 in 10.0 mi Calm Calm - N/A   Clear
6:35 PM 69.8 °F 53.6 °F 56% 30.12 in 10.0 mi Calm Calm - N/A   Clear
6:55 PM 66.2 °F 53.6 °F 64% 30.13 in 10.0 mi Calm Calm - N/A   Clear
7:15 PM 64.4 °F 55.4 °F 73% 30.14 in 10.0 mi SE 3.5 mph - N/A   Clear
7:35 PM 64.4 °F 55.4 °F 73% 30.14 in 10.0 mi SE 4.6 mph - N/A   Clear
7:55 PM 64.4 °F 53.6 °F 68% 30.15 in 10.0 mi Calm Calm - N/A   Clear
8:15 PM 62.6 °F 53.6 °F 72% 30.15 in 10.0 mi Calm Calm - N/A   Clear
8:35 PM 60.8 °F 53.6 °F 77% 30.14 in 10.0 mi SE 3.5 mph - N/A   Clear
8:55 PM 62.6 °F 53.6 °F 72% 30.15 in 10.0 mi SE 3.5 mph - N/A   Clear
9:15 PM 60.8 °F 53.6 °F 77% 30.15 in 10.0 mi SSE 3.5 mph - N/A   Clear
9:35 PM 60.8 °F 51.8 °F 72% 30.16 in 10.0 mi South 3.5 mph - N/A   Clear
9:55 PM 60.8 °F 53.6 °F 77% 30.16 in 10.0 mi SSE 3.5 mph - N/A   Clear
10:15 PM 60.8 °F 53.6 °F 77% 30.17 in 10.0 mi SSE 4.6 mph - N/A   Clear
10:55 PM 59.0 °F 53.6 °F 82% 30.17 in 10.0 mi South 3.5 mph - N/A   Clear
11:15 PM 59.0 °F 53.6 °F 82% 30.17 in 10.0 mi South 3.5 mph - N/A   Clear
11:35 PM 59.0 °F 53.6 °F 82% 30.17 in 10.0 mi South 3.5 mph - N/A   Clear
11:55 PM 57.2 °F 53.6 °F 88% 30.17 in 10.0 mi South 3.5 mph - N/A   Clear